Theta_e
357 358 357 355 356 354 352 350 355 353 353 350 349 350 352 354 352 355 355 356 356 357 359 358 357 357 358 357 357 358 358 359 359 357 357 356 354 354 355 354 354 354 354
357 354 355 356 351 353 352 353 356 354 352 354 352 352 353 356 357 359 356 357 357 358 359 360 360 359 358 358 359 359 359 359 357 358 357 355 355 355 352 351 351 352 351
356 354 356 354 354 357 356 355 356 355 353 348 354 354 354 353 352 355 357 355 357 359 359 360 359 359 359 360 361 361 359 358 358 358 357 356 356 354 350 349 350 350 349
358 358 354 353 355 356 354 352 353 352 349 349 349 349 351 355 355 351 352 355 356 353 358 361 361 361 360 359 360 361 359 357 357 357 356 357 356 353 349 347 348 349 348
358 356 355 357 358 354 352 352 354 353 350 349 349 352 352 352 354 353 355 355 354 355 354 358 359 361 360 359 358 360 357 358 359 356 357 356 355 354 348 347 348 350 349
359 358 357 357 353 351 351 354 355 353 349 346 342 347 352 353 354 353 353 353 357 356 356 357 357 356 360 360 359 360 358 358 358 358 357 356 355 351 348 350 350 350 348
360 360 356 355 354 352 353 352 351 348 347 349 346 350 350 353 355 358 359 356 355 357 357 357 356 356 357 360 361 361 359 359 358 358 357 356 354 352 350 351 351 349 348
360 359 358 355 355 352 352 351 348 344 345 349 344 348 340 344 350 355 355 353 353 356 357 356 356 357 357 358 360 361 362 360 360 359 358 357 355 353 352 352 350 349 349
357 359 360 358 358 355 349 350 349 346 345 348 346 346 341 337 343 351 354 356 358 355 357 357 359 359 358 356 359 360 362 360 360 359 358 357 355 352 351 352 350 349 348
354 357 359 359 360 356 354 351 351 351 350 345 345 347 347 346 341 339 350 352 353 351 350 355 355 359 359 359 360 358 360 360 360 360 359 358 356 353 351 350 350 349 348
354 356 357 358 358 358 359 357 355 353 351 350 347 350 351 352 352 347 338 343 350 355 354 353 354 355 359 359 361 359 356 357 359 360 361 360 358 356 353 350 349 349 348
351 355 355 357 357 358 360 358 360 360 358 355 357 355 354 349 348 347 343 343 342 348 351 354 353 353 354 355 357 357 356 354 355 356 357 359 360 358 357 354 349 349 348
348 354 353 355 354 355 358 360 359 359 358 355 358 355 356 353 353 349 345 342 341 345 348 353 355 355 356 358 359 357 357 353 351 350 351 353 356 358 359 358 353 350 349
350 356 356 349 355 355 355 359 356 355 356 354 356 358 352 352 354 352 346 344 339 342 347 350 358 357 358 357 358 357 361 350 349 347 346 348 350 352 355 356 356 353 352
348 352 352 352 356 358 359 359 354 355 355 355 353 355 355 354 356 356 353 351 346 337 337 347 348 359 359 359 359 359 360 354 348 347 344 344 345 348 350 352 352 350 349
351 350 352 352 353 355 358 358 357 358 357 355 352 355 355 352 354 355 358 355 353 351 339 347 348 354 357 356 358 361 361 352 349 345 343 342 343 344 346 347 348 348 346
351 352 354 355 354 354 357 359 358 358 358 357 357 357 356 357 352 353 354 363 361 357 345 346 352 355 359 358 359 361 361 360 358 343 342 341 340 341 343 344 344 345 344
352 354 355 356 356 355 357 357 355 355 357 356 357 356 356 355 357 358 360 356 360 360 349 347 352 352 356 358 360 360 358 356 357 351 343 340 339 337 338 338 339 339 339
352 353 356 356 357 357 357 358 358 358 356 356 357 356 355 355 355 356 359 359 362 360 360 348 347 351 353 355 356 359 359 358 358 351 341 338 337 337 335 333 333 333 332
350 352 355 356 358 358 357 357 356 356 356 355 355 355 355 353 353 353 353 356 355 353 357 350 348 347 349 355 354 350 348 352 352 354 351 345 344 341 336 333 332 332 328
352 353 354 356 357 356 354 356 356 355 354 354 354 353 352 350 345 346 351 356 358 353 349 347 345 346 346 346 348 349 348 350 354 355 353 353 354 356 355 338 342 337 331
354 356 354 356 355 352 340 339 351 355 354 352 351 352 354 349 347 340 339 340 348 357 353 350 344 345 349 354 350 353 349 346 341 354 351 350 355 352 354 356 343 335 331
355 354 354 354 354 355 334 335 339 353 351 346 349 350 351 352 350 356 344 336 337 335 338 349 347 346 347 353 351 348 346 345 343 348 349 345 349 349 352 351 336 332 330
353 353 353 354 354 354 333 331 337 353 350 347 347 351 350 352 356 356 356 355 355 353 348 346 347 347 344 344 341 340 340 340 343 344 347 335 344 344 350 352 336 332 328
351 351 352 353 353 354 329 328 336 353 350 348 350 351 351 354 341 332 351 351 348 341 329 327 327 326 323 325 329 335 333 334 333 337 349 341 342 343 350 347 334 322 319
354 352 353 355 347 357 328 325 334 351 349 349 353 344 326 340 324 325 349 350 346 341 340 338 338 333 330 331 327 334 332 328 328 330 327 326 334 332 333 324 317 316 318
Wind_Speed
4 4 4 4 2 4 4 5 3 3 5 5 5 4 3 3 4 3 3 10 12 11 9 7 7 6 6 6 6 6 6 7 6 5 4 3 1 2 2 2 3 4 3
3 4 4 3 4 5 4 3 2 2 2 2 4 5 4 2 3 3 3 6 11 9 7 6 6 6 6 7 7 6 7 6 5 5 4 2 2 4 3 3 3 3 6
5 6 5 4 4 3 3 2 1 0 2 3 2 4 3 3 4 4 4 4 9 9 7 6 5 4 5 7 7 7 4 5 5 5 3 4 5 4 3 2 3 4 4
5 5 4 3 4 4 3 3 2 0 3 2 1 1 1 1 3 4 4 4 4 3 7 7 7 6 6 6 6 6 1 3 3 2 3 5 5 4 3 2 1 3 3
4 4 3 3 4 5 3 3 2 1 1 1 2 2 3 3 3 2 3 4 4 4 4 6 6 6 6 4 4 4 1 3 4 4 5 4 4 5 3 2 2 4 4
4 4 3 3 4 4 3 2 1 1 3 4 4 4 2 2 2 2 3 3 3 5 5 5 4 5 6 5 4 3 2 2 3 6 5 5 5 4 4 4 4 3 3
4 4 3 4 4 4 4 4 1 2 2 3 4 2 3 2 3 2 2 2 3 4 5 4 4 4 4 6 5 4 4 4 5 6 6 5 5 5 4 5 5 4 3
5 5 4 4 4 3 4 5 3 2 2 1 3 1 2 4 3 3 3 2 1 3 4 4 5 6 6 4 2 4 7 6 7 7 7 7 7 6 7 6 6 5 5
7 7 6 4 4 2 3 3 4 2 1 1 2 3 1 3 3 2 2 2 1 2 2 4 5 6 6 5 5 7 9 9 9 8 8 8 7 8 8 9 8 7 6
8 8 7 6 5 4 4 3 4 3 3 1 0 1 2 3 3 2 2 3 3 4 4 4 5 5 7 6 7 8 3 9 11 11 10 10 10 9 9 10 10 9 8
11 10 8 7 6 5 5 4 4 4 3 2 2 2 2 1 1 2 4 4 3 2 3 4 4 5 5 6 7 8 10 11 12 12 11 10 11 11 11 11 11 10 10
9 10 9 8 6 5 5 4 4 5 4 4 2 3 1 1 1 1 3 4 5 4 4 3 4 4 4 6 8 8 9 11 12 12 12 12 12 13 13 12 12 12 12
7 9 10 9 8 6 6 5 5 5 5 5 4 4 3 3 2 3 4 4 4 4 3 3 2 4 4 4 6 7 11 11 11 12 13 13 13 13 14 14 14 15 15
10 10 9 6 9 8 8 7 6 6 6 6 7 6 5 4 4 4 5 4 5 4 3 4 1 1 3 5 4 4 8 10 11 12 13 13 14 14 14 14 14 14 15
9 9 10 9 9 9 9 8 7 8 7 7 7 7 7 5 5 5 5 5 5 7 5 1 3 2 3 3 4 7 6 5 10 11 12 13 14 14 16 16 16 15 15
10 10 10 10 10 10 10 10 8 8 8 7 6 7 7 6 7 6 6 6 6 6 8 4 6 6 7 5 3 7 7 5 9 12 14 15 16 17 17 16 16 16 16
11 11 10 9 10 11 11 10 10 10 9 9 8 8 8 7 7 6 6 5 5 5 7 7 5 6 7 7 7 5 6 7 7 12 13 14 15 17 18 18 18 17 18
12 11 11 10 10 11 11 11 11 9 10 10 10 9 10 7 9 8 6 8 7 7 7 10 8 8 8 8 7 8 8 9 9 8 12 14 14 15 17 17 18 19 18
13 12 11 10 10 10 10 10 9 8 9 9 10 10 10 9 9 8 8 6 6 5 6 8 9 7 7 8 9 9 9 10 9 9 9 13 13 15 16 17 18 17 19
14 14 13 12 10 10 10 10 9 8 9 9 10 10 10 10 11 11 10 9 8 7 7 8 9 9 9 9 8 9 10 9 9 9 9 11 7 11 16 16 16 18 17
14 14 13 14 13 11 9 11 10 9 8 8 9 10 12 12 12 11 9 9 9 8 8 9 10 10 10 9 9 8 9 10 9 9 10 10 9 8 8 11 15 18 18
15 14 14 14 14 11 11 13 10 8 8 8 10 10 12 12 13 14 14 14 13 9 10 8 9 10 11 8 9 8 9 10 10 4 6 7 5 9 8 8 9 14 12
13 15 15 14 14 14 10 13 14 10 8 9 9 9 11 12 10 11 11 13 12 10 12 9 9 9 10 9 6 8 10 10 10 9 10 11 10 10 10 9 10 11 14
14 13 13 14 14 12 11 13 17 13 11 10 8 9 9 12 11 10 9 9 9 5 5 6 7 6 5 6 6 7 9 9 8 8 6 6 8 10 10 9 4 8 10
13 14 13 14 15 14 13 17 16 13 11 9 8 8 10 10 6 5 9 9 5 5 4 4 2 3 3 4 4 4 6 7 9 7 2 7 10 10 7 7 6 15 15
13 11 13 13 14 14 12 13 13 9 11 9 8 6 1 9 5 7 8 7 8 6 5 4 3 2 2 2 3 4 4 4 4 5 3 5 4 4 3 2 5 7 6
Wind_Direction
206 211 201 170 185 168 188 184 177 152 151 154 158 162 172 205 222 227 192 188 194 194 203 207 213 222 238 258 266 267 273 278 287 297 299 292 241 125 99 43 19 14 10
203 221 233 173 214 174 176 160 181 67 80 198 180 181 170 168 166 178 175 168 198 201 213 235 235 224 240 252 263 265 282 282 281 276 274 265 174 153 115 77 33 40 88
232 253 247 177 191 184 173 176 214 163 46 67 125 144 150 131 130 145 172 190 167 199 228 247 260 260 258 276 288 278 267 280 287 283 248 181 171 160 133 97 72 92 96
241 241 239 175 190 186 212 203 217 216 52 37 95 152 217 212 154 172 179 192 180 200 197 240 253 237 243 265 298 310 263 273 281 265 191 162 172 172 153 158 158 107 106
216 239 234 179 183 180 205 207 173 18 15 36 306 258 219 213 206 188 211 193 177 213 225 174 242 252 248 254 283 316 22 293 278 189 174 177 200 190 165 182 169 140 131
205 213 218 187 172 172 208 215 348 344 339 327 298 287 238 176 215 230 213 197 193 207 225 249 227 214 223 238 262 276 231 273 187 188 200 200 180 184 186 176 163 165 173
213 216 213 179 189 175 176 179 168 263 265 309 277 207 137 118 64 65 123 132 183 204 210 228 254 265 215 220 233 243 222 214 187 199 209 202 203 198 203 191 183 190 214
209 216 220 202 218 182 173 167 151 191 217 9 351 288 53 147 92 100 123 125 125 193 215 221 243 244 260 265 282 225 211 231 227 221 226 215 216 211 202 199 203 209 217
221 221 217 224 218 227 242 189 190 227 354 89 14 351 327 31 333 82 101 291 267 219 239 232 233 241 238 246 248 228 216 207 221 231 227 219 224 224 217 212 211 216 221
216 224 226 214 202 206 238 191 188 223 266 9 101 223 338 334 348 338 110 25 337 284 279 262 252 244 228 245 240 262 232 212 219 217 222 215 214 228 233 226 222 219 212
213 222 216 219 213 210 204 212 184 204 209 254 192 166 176 175 165 306 348 355 335 323 299 259 256 255 240 248 249 239 215 221 222 219 216 225 218 222 234 237 230 224 221
205 213 208 212 214 216 207 210 197 210 228 239 225 237 269 340 36 301 297 317 325 329 329 257 244 244 236 241 253 257 216 225 224 222 215 212 219 223 226 232 235 231 227
198 201 204 202 206 217 227 220 215 212 221 236 234 250 242 249 251 271 278 300 304 317 317 294 257 251 245 243 252 240 222 232 235 221 216 215 216 219 223 227 228 231 230
199 200 202 197 214 205 218 225 230 240 231 242 253 255 268 255 249 254 269 280 284 265 290 312 334 305 270 253 282 263 255 211 226 225 222 220 219 218 221 223 224 226 229
204 203 200 211 221 214 221 229 236 234 240 240 248 249 252 258 239 246 241 255 275 288 294 320 307 60 326 283 246 257 257 197 214 223 226 231 230 222 221 221 219 218 217
210 205 212 216 224 223 219 223 232 232 236 237 237 241 248 254 252 244 248 241 240 254 277 276 287 308 319 304 253 253 258 247 217 224 222 222 222 222 222 222 222 223 222
205 205 210 216 223 225 220 218 226 238 236 241 241 237 244 240 250 254 248 249 235 236 257 276 273 291 290 297 304 266 258 257 251 211 230 233 231 228 222 217 217 219 223
206 210 206 212 219 225 222 217 226 233 238 240 239 237 241 236 238 248 240 245 240 235 256 275 287 284 272 289 285 282 270 269 266 234 222 237 234 226 226 223 218 217 217
205 209 210 217 217 217 218 221 224 232 243 250 255 250 251 249 247 246 242 245 240 251 229 261 276 271 280 283 279 271 274 274 267 257 238 238 239 232 226 226 225 220 217
207 212 209 215 216 216 216 221 219 224 237 246 251 251 255 253 259 256 251 252 252 257 254 256 264 268 265 273 270 280 279 268 275 282 260 255 273 242 237 232 229 232 227
210 215 217 216 213 209 207 206 214 227 243 260 260 257 253 249 252 248 250 243 251 246 257 264 266 271 267 267 269 285 287 284 281 272 277 277 274 255 249 232 251 237 234
211 213 218 220 216 220 189 189 204 214 228 250 262 260 259 255 249 237 235 245 253 252 256 254 265 267 279 280 276 280 286 284 286 274 283 282 288 277 268 261 240 238 231
210 214 223 229 236 235 189 189 181 211 206 213 225 251 259 256 235 253 235 237 240 225 238 254 255 257 277 283 304 283 279 277 279 293 305 285 289 278 280 275 235 233 233
218 214 223 229 233 235 186 184 187 219 219 227 217 224 243 261 256 244 246 243 243 247 227 214 242 284 302 303 282 280 286 282 272 263 246 266 266 280 284 284 276 259 245
216 219 217 221 225 233 190 186 189 216 232 236 221 233 244 255 266 196 237 243 195 161 131 100 62 49 22 346 333 302 284 289 291 298 319 271 280 278 289 288 27 8 22
219 215 221 221 223 229 187 190 195 206 227 232 216 164 117 246 152 212 216 199 194 180 198 177 176 162 5 18 326 310 314 290 298 283 42 337 351 353 296 54 41 9 8